Location: Alexandria
(38.8050°N, 77.0470°W)
Time: 22:48:54
(UTC-04:00)

Envisat - Pass Details

Date: 09 March 2018
Orbit: 764 x 766 km, 98.2° (Epoch: 18 June)

Event Time Altitude Azimuth Distance (km) Brightness Sun altitude
Rises 18:58:34 0° 146° (SE) 3,216 5.9 -10.4°
Reaches altitude 10° 19:00:59 10° 138° (SE) 2,294 5.1 -10.9°
Maximum altitude 19:05:40 40° 71° (ENE) 1,126 3.4 -11.8°
Drops below altitude 10° 19:10:22 10° 3° (N) 2,308 5.5 -12.7°
Sets 19:12:48 0° 356° (N) 3,239 6.4 -13.2°
